Temperature
19 17 17 17 18 19 19 19 19 20 21 21 20 20 21 22 22 21 22 22 22 22 22 21 21 21 20 20 19 19 18 18 17 16 16 15 15 15 14 14 14 14 14 14
18 18 19 19 19 19 19 19 19 20 21 21 20 20 21 21 21 22 22 22 22 21 21 21 21 21 20 20 19 19 18 17 17 16 16 15 15 14 14 14 14 14 14 13
18 19 20 20 19 19 19 19 19 20 21 21 21 20 20 21 21 22 22 22 22 22 21 21 21 20 20 20 19 19 18 17 17 16 16 15 15 14 14 14 14 14 13 13
19 20 20 20 20 20 19 20 21 21 19 19 20 19 20 20 20 21 21 22 22 22 22 21 21 20 20 20 19 19 18 17 17 16 16 15 15 14 14 14 14 13 13 13
19 20 20 20 21 21 20 21 21 20 19 19 19 19 19 20 20 21 20 21 22 22 22 21 21 21 20 20 19 18 18 17 17 16 16 15 15 14 14 14 14 13 13 13
20 21 21 21 22 22 21 20 19 18 17 18 20 19 20 19 21 21 21 22 22 22 22 22 21 20 20 19 19 18 18 17 17 16 15 15 15 14 14 14 14 14 13 13
21 21 22 22 21 22 20 18 18 18 17 18 19 19 19 21 21 21 21 22 22 22 22 21 21 20 20 19 19 18 18 17 16 16 15 15 15 14 14 14 14 14 14 13
20 20 22 22 22 21 20 19 18 19 18 18 19 20 20 22 22 23 23 23 23 22 22 22 21 21 20 20 19 18 18 17 16 16 15 15 15 14 14 14 14 14 14 13
20 20 23 23 23 22 21 19 19 18 19 18 19 20 22 22 22 21 22 22 22 22 22 22 22 21 20 20 19 19 18 17 16 16 15 15 15 14 14 14 14 14 14 13
21 21 23 24 24 23 22 20 17 18 18 18 19 20 19 21 21 21 20 21 22 22 22 22 22 21 21 20 19 19 18 17 17 16 16 15 15 14 14 14 14 14 14 14
21 21 22 22 23 22 22 22 19 17 17 18 19 19 20 21 21 21 21 22 23 23 22 22 22 21 21 20 19 19 18 17 17 16 16 15 15 14 14 14 14 14 14 14
20 18 19 21 22 23 23 22 19 19 19 17 17 18 21 21 21 21 22 23 23 23 23 22 22 21 21 20 19 19 18 18 17 16 16 15 15 15 14 14 14 14 14 14
20 19 19 19 20 22 23 23 20 18 17 17 18 19 21 20 21 22 23 23 23 23 23 22 22 21 21 20 20 19 18 18 17 17 16 16 15 15 15 14 14 14 14 14
20 18 19 20 20 21 22 23 22 19 18 18 19 20 21 21 21 21 22 23 23 22 22 22 21 21 21 20 20 19 19 18 17 17 16 16 15 15 15 14 14 14 14 14
19 19 20 20 21 22 22 22 22 21 19 19 20 20 20 20 20 21 22 22 22 22 22 21 21 21 21 20 20 19 19 18 18 17 17 16 16 15 15 15 14 14 14 14
18 20 20 20 21 21 22 22 21 21 21 20 20 20 20 20 21 21 21 21 21 22 22 22 21 21 21 20 20 19 19 18 18 17 17 16 16 15 15 15 15 14 14 14
17 18 19 18 19 21 20 21 21 21 21 21 20 19 19 20 20 20 21 21 21 21 22 22 22 21 21 21 20 20 19 19 18 18 17 17 16 16 15 15 15 14 14 14
18 17 16 17 19 20 20 20 21 21 20 20 19 19 19 20 21 22 21 21 21 21 21 22 22 22 21 21 20 20 19 19 18 18 17 17 16 16 16 15 15 14 14 14
17 17 16 16 18 18 20 21 21 20 19 19 19 19 19 20 20 20 21 21 21 21 21 22 22 21 21 21 20 20 19 19 18 18 18 17 17 16 16 15 15 15 14 14
16 16 16 16 18 18 19 20 21 19 18 18 18 18 19 19 16 17 20 21 21 21 21 21 21 21 21 21 20 20 19 19 18 18 18 18 17 17 16 16 15 15 15 14
17 16 16 16 17 17 18 19 19 18 17 18 19 19 19 17 17 19 20 20 20 20 20 20 20 20 20 20 20 19 19 19 19 18 18 18 17 17 16 16 16 15 15 14
16 16 15 14 16 16 17 18 17 17 18 18 18 19 19 19 19 19 19 19 19 19 20 20 20 20 19 19 19 19 19 19 18 18 18 17 17 17 16 16 16 15 15 14
15 15 14 14 15 16 17 18 18 18 18 18 18 18 18 18 18 18 18 18 18 18 19 19 19 19 19 19 18 18 18 18 18 18 18 17 17 17 16 16 16 15 15 14
14 15 14 14 15 16 17 17 18 18 18 17 17 17 17 17 17 17 17 17 18 18 18 18 18 18 18 18 18 18 18 18 18 17 17 17 17 17 16 16 16 15 15 15
14 14 14 14 14 15 16 16 16 17 17 17 17 16 16 16 16 16 16 16 16 17 17 17 17 17 17 17 17 17 17 17 17 17 17 17 17 16 16 16 16 15 15 15
12 13 13 13 14 14 15 16 16 16 16 16 16 16 15 15 15 15 15 15 15 16 16 16 16 16 16 17 17 17 17 16 16 16 16 16 16 16 16 16 15 15 15 15
Wind_Speed
4 6 5 6 6 4 3 3 3 4 3 2 6 8 9 8 6 7 8 9 9 8 7 8 9 10 9 8 9 8 8 6 5 3 3 2 1 0 1 1 1 1 2 2
5 3 6 8 5 4 2 1 2 3 3 3 5 7 7 7 8 8 10 10 10 8 8 8 8 8 9 9 8 8 8 7 5 4 3 2 2 1 1 1 1 1 1 1
6 4 7 7 6 5 3 4 4 3 2 2 1 6 5 4 4 5 7 9 11 13 13 10 9 8 9 9 9 9 8 7 6 5 3 3 3 2 2 2 2 2 1 1
3 3 7 6 5 6 4 6 5 1 2 3 1 2 6 4 2 5 7 9 11 11 11 10 10 9 10 9 8 9 8 7 6 5 4 4 2 1 2 2 2 3 2 2
3 5 7 6 6 7 5 3 2 1 1 2 1 2 6 1 4 7 8 10 11 12 13 13 11 11 10 9 9 9 8 7 6 5 5 4 3 2 2 1 2 2 3 3
2 3 5 5 4 5 3 3 4 4 3 2 4 4 5 5 8 8 7 9 10 11 11 11 9 9 8 8 8 8 8 6 5 5 5 5 4 3 1 1 1 2 2 3
2 1 1 3 2 1 4 5 4 5 3 5 3 2 6 7 7 9 10 10 10 11 11 11 11 10 10 10 9 8 9 6 5 5 4 5 5 5 3 2 2 2 2 3
2 2 4 3 5 4 3 7 6 3 3 4 4 0 6 4 3 6 7 9 9 10 11 12 13 12 11 11 10 9 9 7 6 5 5 5 5 3 3 3 3 3 3 3
4 4 3 5 4 6 4 3 5 6 1 1 4 3 5 3 1 4 6 8 9 10 11 12 11 12 12 11 11 11 10 7 7 6 6 5 4 4 3 3 2 2 3 3
5 2 2 1 2 1 5 6 5 4 3 1 4 3 4 5 5 5 6 8 9 9 10 10 11 12 11 11 9 9 10 9 7 7 6 5 5 5 4 3 2 2 3 2
3 3 2 2 2 4 1 2 5 4 5 4 1 6 6 9 9 9 9 9 10 11 11 10 10 10 10 9 9 9 9 8 7 7 6 5 5 4 4 3 3 3 2 2
2 5 1 4 6 4 5 5 6 4 1 4 3 7 7 7 8 8 8 8 8 10 10 10 10 9 9 10 9 10 9 9 8 7 6 6 5 4 4 3 3 2 2 2
4 5 4 6 7 5 0 2 5 6 4 4 3 6 6 3 3 4 5 5 6 6 6 6 7 9 10 10 10 10 10 10 8 8 7 6 5 5 5 4 3 2 2 1
4 4 5 5 6 4 3 3 2 5 3 3 6 6 7 5 2 3 4 5 5 5 6 6 7 8 9 10 10 10 10 10 9 8 8 7 7 7 6 5 4 3 2 2
4 2 3 5 5 2 3 5 4 4 7 7 6 5 7 6 4 4 4 4 3 4 5 7 8 8 8 8 8 9 10 9 9 9 9 8 7 7 6 5 4 3 2 2
4 2 3 5 5 4 4 5 4 4 4 4 3 3 5 3 0 1 0 3 4 5 6 7 7 7 8 9 10 9 10 10 9 10 10 9 7 7 6 6 5 4 3 2
2 2 2 4 6 4 4 5 3 1 0 3 3 4 3 2 2 1 1 1 2 5 6 6 8 9 9 9 10 11 11 9 10 11 10 9 9 8 7 7 6 5 4 3
4 3 2 1 4 2 7 4 3 4 3 3 1 1 0 2 2 1 2 0 2 3 4 6 6 7 7 7 7 9 8 9 10 10 10 10 9 9 8 7 7 6 4 4
7 7 3 3 1 5 7 4 0 3 3 5 2 3 3 2 4 6 6 3 2 4 4 5 6 6 6 6 6 7 8 8 9 10 11 11 11 10 9 8 8 6 5 4
5 5 5 3 2 4 6 7 3 5 2 6 3 3 3 5 4 5 9 6 4 3 3 3 2 2 3 5 5 6 8 8 10 11 11 11 11 11 11 10 8 6 5 6
3 3 3 3 4 5 6 6 4 4 4 4 2 2 3 2 3 5 7 6 5 3 3 2 1 1 4 4 4 6 7 10 11 9 8 9 11 11 11 9 7 6 6 5
3 2 2 3 3 5 6 3 3 4 2 1 2 2 2 1 3 4 6 7 7 6 4 2 1 3 3 2 4 6 8 9 6 6 7 9 10 10 9 9 8 7 7 6
2 4 4 5 5 3 2 1 1 2 1 0 1 2 2 2 4 5 5 6 7 6 5 3 2 3 4 2 4 6 7 5 5 6 7 8 8 8 8 9 9 7 7 6
4 2 2 1 2 3 3 3 2 2 1 1 1 2 3 2 3 5 5 6 7 7 6 4 3 4 5 5 4 6 5 4 6 7 7 7 8 7 7 6 7 7 8 8
5 3 2 3 4 3 4 4 2 2 3 3 4 3 3 3 4 4 5 6 6 7 6 5 4 5 7 6 6 5 4 4 5 7 6 6 7 8 7 6 5 7 8 9
4 5 5 6 6 3 5 5 2 1 2 2 2 4 4 3 4 4 4 5 6 7 6 6 6 6 7 6 6 5 4 5 6 6 6 5 5 6 6 6 3 1 4 7
Wind_Direction
117 102 145 180 183 172 150 158 218 238 235 204 233 243 249 240 207 197 191 190 190 185 171 163 158 151 144 146 142 143 140 143 131 113 111 103 82 340 14 333 53 52 35 33
79 138 176 163 159 151 152 169 253 273 260 213 242 261 257 231 210 195 186 182 180 167 158 164 155 149 149 151 148 146 147 148 145 145 155 163 164 209 235 304 359 352 350 355
137 180 166 163 156 168 192 196 214 226 337 341 329 319 291 264 208 191 182 176 173 172 171 172 161 155 153 155 157 151 149 147 146 139 115 80 57 35 16 347 324 303 288 302
143 176 167 172 178 174 212 222 205 206 58 307 120 284 293 267 206 197 187 174 177 177 172 171 166 165 165 164 154 146 148 148 149 137 128 134 143 181 233 241 262 287 294 296
190 182 170 182 200 180 202 201 182 202 115 334 315 155 288 275 197 211 197 184 182 179 175 176 176 173 167 159 152 151 147 151 155 146 143 144 159 201 238 254 281 298 301 299
209 190 176 196 206 185 150 63 40 51 72 315 243 158 264 230 208 205 201 189 181 177 176 175 169 159 156 156 152 150 148 158 162 153 154 161 171 177 179 258 276 290 295 299
22 327 210 150 109 88 94 85 42 18 15 265 265 155 245 248 217 193 188 187 181 174 172 168 166 167 165 164 161 157 156 167 171 159 165 175 180 177 188 218 235 253 276 286
122 273 227 189 170 165 163 138 148 171 226 286 346 269 269 277 208 171 167 170 170 176 179 179 179 175 173 173 169 164 166 172 174 169 174 177 180 180 201 216 223 235 242 255
161 248 256 204 181 144 135 166 170 140 150 16 331 323 326 356 90 147 158 165 181 187 188 188 183 179 178 178 177 173 171 174 181 181 177 178 186 191 206 224 233 244 250 253
155 180 281 226 83 51 154 150 96 99 111 16 326 279 236 235 225 208 192 192 198 194 192 191 188 187 186 183 180 174 173 178 182 184 186 185 196 204 208 212 239 254 258 261
103 123 339 36 184 211 140 107 109 112 143 141 269 276 234 213 211 206 208 203 196 194 194 193 193 192 187 180 176 177 179 178 182 189 191 187 201 208 207 215 235 243 248 253
80 113 116 272 273 211 173 172 143 137 209 154 168 268 278 224 221 208 209 210 202 197 196 193 190 184 183 184 184 183 183 184 189 188 187 194 199 199 204 222 240 232 228 239
92 95 59 353 344 352 305 184 144 132 119 141 160 267 303 316 263 221 201 201 198 196 194 191 186 187 192 192 191 191 189 192 191 184 183 189 195 198 205 216 225 215 204 223
102 102 149 192 233 252 277 276 175 127 145 205 218 244 296 304 277 242 207 190 179 179 181 185 196 202 202 199 196 195 198 193 188 185 185 192 199 202 206 206 206 204 192 191
84 117 222 240 251 239 245 254 235 194 192 193 231 231 259 254 235 227 207 182 171 184 193 197 202 207 207 205 203 199 199 194 189 186 192 201 202 200 198 195 199 199 188 190
52 85 14 329 318 318 298 275 244 232 212 206 211 260 274 260 167 42 154 170 193 209 212 212 210 208 209 207 204 201 201 198 188 190 199 199 191 192 195 195 193 186 184 180
10 84 52 297 312 3 304 269 225 204 204 170 192 240 275 19 49 58 45 153 231 239 228 219 215 215 215 210 203 202 203 194 189 196 199 196 190 191 197 194 184 190 194 186
174 122 136 260 11 265 252 279 161 116 36 39 96 290 251 159 178 96 63 121 269 270 257 242 229 225 221 212 206 202 192 188 193 198 200 198 192 194 193 188 192 197 193 193
173 153 145 132 224 284 306 321 305 131 15 356 43 16 5 15 36 5 349 334 275 261 253 246 233 225 216 210 205 190 189 190 194 202 204 201 194 192 189 193 199 197 190 197
98 117 132 136 164 239 269 302 315 105 24 335 22 37 22 49 39 309 320 324 325 316 289 277 279 236 213 218 193 182 194 193 204 209 208 201 194 192 195 199 199 194 191 201
45 60 135 175 207 257 279 307 48 105 246 297 28 70 63 100 222 274 317 338 333 320 310 313 323 255 236 221 183 191 197 208 214 211 204 198 196 196 197 196 194 189 190 194
180 163 186 148 178 252 308 45 104 216 244 335 36 46 54 333 317 330 345 348 343 337 330 328 309 288 277 218 191 206 217 221 209 195 197 200 199 199 196 189 192 188 185 189
193 193 191 183 204 238 340 120 201 142 118 5 27 359 16 5 347 340 337 336 336 329 319 313 293 291 295 261 212 221 235 218 196 193 201 202 198 199 189 188 190 188 187 192
307 12 101 323 281 323 4 22 28 61 72 11 16 9 14 354 339 338 332 328 328 326 317 312 311 300 293 283 258 242 237 207 192 200 207 201 192 195 193 191 191 190 193 196
268 345 2 286 284 340 355 352 349 10 25 20 12 7 360 350 334 332 330 325 323 322 319 315 294 278 277 279 276 272 239 202 204 209 207 205 199 194 192 192 196 198 203 203
228 216 214 242 246 225 268 285 301 7 0 355 1 351 347 348 327 329 325 323 325 323 320 314 301 288 285 282 275 270 244 212 206 216 213 208 205 198 191 185 185 223 210 209
Height
1482 1489 1496 1495 1495 1496 1498 1501 1502 1497 1490 1491 1493 1491 1487 1485 1486 1487 1488 1489 1491 1493 1495 1498 1500 1501 1503 1504 1505 1506 1506 1507 1506 1506 1506 1505 1505 1504 1503 1502 1500 1499 1497 1496
1487 1492 1488 1489 1492 1495 1497 1501 1501 1495 1489 1491 1492 1490 1484 1482 1483 1483 1485 1486 1488 1491 1495 1497 1498 1500 1501 1502 1503 1504 1505 1505 1505 1505 1505 1504 1504 1503 1502 1501 1500 1498 1496 1495
1488 1488 1486 1489 1493 1496 1497 1499 1498 1496 1491 1489 1493 1495 1486 1481 1481 1482 1483 1484 1485 1488 1491 1494 1497 1498 1500 1501 1502 1503 1504 1504 1504 1504 1504 1503 1503 1502 1501 1500 1499 1497 1495 1494
1485 1483 1485 1488 1490 1492 1498 1489 1489 1491 1499 1503 1498 1511 1492 1485 1482 1481 1481 1482 1484 1487 1489 1492 1495 1497 1498 1500 1501 1502 1502 1503 1503 1503 1502 1502 1502 1501 1500 1499 1498 1496 1495 1493
1484 1482 1484 1487 1485 1485 1489 1484 1488 1491 1499 1505 1501 1508 1501 1487 1486 1481 1479 1480 1482 1485 1487 1490 1492 1495 1497 1498 1499 1500 1501 1501 1501 1501 1501 1501 1500 1500 1499 1498 1497 1496 1494 1493
1480 1478 1479 1480 1478 1481 1483 1488 1492 1499 1506 1515 1503 1508 1503 1490 1482 1479 1478 1479 1481 1484 1486 1489 1491 1494 1495 1497 1498 1499 1499 1500 1500 1500 1500 1500 1499 1499 1498 1497 1496 1495 1493 1492
1484 1480 1477 1477 1481 1482 1486 1501 1516 1518 1523 1517 1499 1502 1499 1480 1475 1474 1475 1478 1480 1482 1485 1487 1490 1492 1493 1495 1496 1497 1497 1498 1498 1498 1498 1498 1498 1498 1497 1496 1495 1494 1493 1491
1493 1493 1479 1476 1479 1484 1488 1497 1515 1523 1523 1516 1501 1502 1491 1475 1472 1472 1474 1476 1479 1481 1483 1485 1487 1489 1491 1492 1494 1495 1495 1496 1497 1497 1497 1497 1497 1496 1496 1495 1494 1493 1492 1491
1492 1491 1475 1473 1473 1477 1487 1494 1495 1509 1511 1517 1510 1496 1484 1475 1475 1475 1475 1477 1478 1480 1482 1483 1485 1487 1489 1490 1491 1492 1493 1494 1495 1495 1495 1495 1495 1495 1495 1494 1494 1493 1492 1490
1480 1487 1477 1472 1473 1475 1479 1485 1500 1508 1519 1525 1514 1504 1499 1483 1479 1476 1476 1476 1477 1478 1480 1481 1483 1485 1486 1488 1489 1491 1492 1492 1493 1493 1494 1494 1494 1494 1494 1493 1492 1492 1491 1490
1476 1487 1485 1479 1480 1482 1482 1486 1495 1508 1511 1522 1523 1511 1481 1478 1475 1474 1473 1473 1474 1476 1477 1479 1480 1482 1484 1485 1487 1488 1489 1490 1491 1492 1492 1493 1493 1493 1493 1492 1492 1491 1490 1489
1477 1488 1494 1486 1476 1472 1476 1481 1491 1505 1508 1512 1518 1509 1472 1472 1471 1470 1471 1471 1472 1474 1475 1477 1478 1480 1481 1483 1484 1486 1487 1488 1489 1490 1490 1491 1491 1491 1491 1491 1490 1490 1489 1488
1477 1489 1503 1501 1492 1480 1477 1477 1483 1494 1504 1512 1516 1504 1472 1471 1471 1470 1470 1470 1471 1472 1474 1475 1476 1477 1479 1480 1481 1483 1484 1486 1487 1488 1488 1489 1489 1489 1489 1489 1489 1489 1488 1488
1474 1488 1499 1504 1498 1486 1482 1478 1478 1489 1504 1505 1501 1493 1479 1474 1472 1470 1469 1469 1470 1471 1472 1473 1474 1475 1476 1477 1479 1480 1482 1483 1484 1485 1486 1486 1487 1487 1487 1488 1487 1487 1487 1486
1477 1488 1486 1485 1481 1480 1479 1479 1478 1483 1488 1495 1489 1485 1478 1473 1471 1469 1468 1468 1469 1470 1470 1471 1472 1473 1474 1475 1476 1477 1479 1480 1481 1482 1483 1484 1485 1485 1485 1486 1486 1486 1485 1485
1480 1486 1486 1486 1479 1479 1479 1476 1476 1477 1478 1482 1482 1481 1472 1470 1469 1468 1467 1467 1468 1468 1468 1469 1469 1470 1471 1472 1473 1474 1475 1477 1478 1479 1480 1481 1482 1483 1483 1483 1484 1484 1484 1483
1485 1487 1492 1496 1487 1483 1489 1478 1476 1476 1475 1476 1482 1480 1472 1470 1469 1468 1468 1467 1467 1466 1466 1466 1467 1467 1468 1469 1470 1470 1472 1473 1475 1476 1477 1478 1479 1480 1480 1481 1481 1482 1482 1482
1483 1488 1496 1498 1493 1498 1486 1471 1470 1473 1475 1474 1474 1472 1470 1469 1468 1468 1467 1467 1466 1465 1465 1464 1464 1465 1465 1466 1467 1468 1469 1470 1471 1472 1473 1475 1476 1477 1477 1478 1478 1479 1479 1479
1476 1485 1495 1502 1501 1495 1481 1471 1471 1474 1479 1475 1473 1472 1470 1468 1467 1467 1467 1467 1466 1465 1464 1463 1462 1462 1463 1463 1464 1465 1465 1466 1467 1468 1469 1471 1472 1473 1474 1475 1475 1476 1477 1477
1475 1481 1492 1499 1499 1500 1486 1471 1467 1471 1484 1476 1473 1472 1471 1469 1475 1472 1468 1466 1464 1463 1462 1461 1461 1460 1460 1461 1461 1461 1462 1462 1463 1464 1465 1467 1468 1469 1470 1471 1472 1473 1473 1474
1484 1488 1494 1498 1499 1493 1479 1471 1470 1486 1487 1476 1473 1472 1471 1471 1473 1471 1467 1465 1463 1462 1460 1460 1459 1458 1458 1458 1458 1458 1458 1458 1459 1460 1461 1462 1463 1465 1466 1467 1468 1469 1470 1471
1487 1491 1494 1498 1500 1496 1476 1473 1479 1481 1476 1475 1473 1472 1471 1471 1469 1468 1466 1464 1462 1460 1459 1458 1457 1456 1456 1455 1455 1454 1454 1454 1455 1456 1457 1458 1459 1460 1461 1463 1464 1465 1466 1467
1485 1485 1486 1489 1489 1479 1475 1475 1475 1474 1474 1474 1473 1472 1470 1469 1467 1466 1464 1462 1461 1459 1457 1456 1455 1454 1453 1453 1452 1451 1451 1451 1451 1452 1452 1453 1454 1455 1457 1458 1459 1460 1462 1462
1482 1480 1481 1483 1479 1477 1476 1475 1474 1474 1473 1472 1471 1470 1469 1467 1466 1464 1462 1461 1459 1457 1455 1454 1452 1451 1450 1449 1448 1448 1447 1447 1446 1446 1447 1448 1449 1450 1451 1453 1454 1455 1456 1457
1483 1481 1482 1482 1478 1476 1475 1475 1474 1473 1472 1471 1469 1469 1467 1466 1464 1462 1460 1458 1457 1455 1453 1451 1449 1448 1446 1445 1444 1444 1443 1442 1442 1442 1442 1442 1443 1444 1446 1447 1448 1449 1451 1452
1479 1479 1481 1480 1476 1476 1474 1473 1472 1471 1470 1469 1467 1466 1465 1463 1462 1460 1458 1456 1454 1452 1450 1448 1446 1444 1442 1441 1440 1439 1438 1438 1437 1437 1437 1437 1437 1438 1440 1441 1442 1443 1445 1447